Vertical_Velocity
-2 -1 -0 -0 -2 -1 -0 -0 -1 -0 -0 -0 1 -1 -1 -2 -1 -1 -1 -0 0 -0 1 0 -0 -0 0 1 0 0 1 -0 0 -1 -1 -0 -2 -1 -1 -2 -1 -1 -2
-2 -1 -0 -1 -1 -0 -0 -0 -0 -1 -1 -1 -1 -0 -1 -0 0 -0 -1 -2 0 1 0 1 1 0 -1 1 1 0 1 -0 0 -0 -0 0 -1 -2 -0 -1 0 -2 -0
-1 -1 0 -2 -0 -0 -0 -0 -1 -0 -0 -1 -1 -2 -1 -1 0 0 0 -1 -1 -0 1 0 1 1 0 1 1 -0 -1 -1 0 -0 1 -0 0 -0 -0 -1 -1 -1 -1
-1 -1 -1 1 -1 -1 -1 -0 -1 -1 -2 -1 -0 -0 -1 -2 -1 -1 0 -0 0 -1 -0 1 1 1 0 1 1 -0 -0 0 0 -1 0 -0 2 0 -1 -1 -1 0 -0
-0 -1 -1 -1 -1 -1 0 0 -1 -1 -1 -1 0 -0 -1 -0 -1 -0 -1 -1 1 0 0 -0 0 -0 -1 -0 -0 -1 -0 -0 -1 -1 -0 -1 -2 2 -1 -2 0 -2 1
-1 1 -3 -0 1 -0 -2 -2 -0 -0 0 0 -1 -1 -1 0 1 1 -1 0 -0 0 1 1 0 -1 0 -0 -2 -2 -2 -3 -2 -2 -2 -1 -0 -2 -0 -0 -1 2 -1
3 -1 -1 -2 -2 -1 -1 -1 -2 -1 -0 -1 -1 0 0 -1 -0 0 1 -0 2 -0 1 0 -0 0 0 -0 -1 -1 -3 -2 -2 -1 -0 -1 -2 -1 -1 -0 -0 -1 -2
6 2 -2 -3 -1 -1 -1 -0 0 -1 -1 -1 -1 -1 -1 0 0 0 0 -1 -1 0 -0 1 1 0 0 -1 -1 -2 -2 -1 -1 -0 4 -2 0 0 -0 -1 -1 -2 0
-2 -1 -2 -3 -2 -2 -2 0 -1 -1 -1 -0 -2 -1 -2 -2 -1 -0 1 -0 -0 -0 -0 -1 1 1 -0 -1 -2 -2 -2 -3 -2 -0 0 1 -1 1 1 -0 -1 -0 1
-4 4 -3 -3 -3 -1 -2 -1 -0 -2 1 -0 -2 0 -0 -2 -1 -3 -2 -1 -1 0 1 2 1 0 0 -0 0 -4 -2 -3 -1 2 -4 1 -0 2 1 -0 -1 0 -0
2 -3 3 -2 -1 -0 -1 -2 -1 -0 -3 -0 -0 -2 1 -0 -0 -1 -1 -1 -2 -0 -1 -0 -1 0 1 0 -2 1 -2 -2 -2 4 -2 -0 -1 2 1 -1 0 -1 -1
-1 -2 -4 2 -2 -1 1 -3 -1 -2 -0 -2 -0 1 -0 -1 2 -2 -1 0 -0 -1 -1 1 1 -1 2 0 -3 -1 -2 -1 -3 7 -3 -2 0 2 -2 -0 -1 -2 -1
-1 -2 -2 -7 -1 -3 1 -4 2 -2 -1 0 -2 -0 -1 -0 1 -1 -0 2 -2 2 0 0 -2 0 1 0 -1 1 -2 -0 -5 5 -3 -0 -1 -1 -2 -3 1 1 1
-1 -3 -1 -3 -2 4 1 -4 -1 2 -3 -1 -1 -2 -1 0 1 0 -2 1 -4 2 -1 -1 1 -1 0 1 -1 -0 -1 -1 -7 7 -2 0 -3 -1 4 -1 -0 -0 -0
-3 -3 2 -1 -1 -2 -4 0 -1 -4 2 -0 0 0 -1 1 1 -1 -1 -1 1 -1 -1 0 1 -1 0 1 0 1 -1 -2 -4 10 -1 3 -2 -1 3 1 -1 -1 -0
-4 -3 -1 -4 -2 -3 0 2 -1 -4 0 1 3 -1 -1 -0 -1 2 -2 -2 -1 -2 -1 -1 -2 -0 1 0 1 1 -2 0 -1 3 -1 -2 -1 -1 -1 0 -1 -1 -1
2 -6 -3 -3 -2 -1 0 -0 2 -2 -3 2 -1 -4 -1 2 -1 4 -2 -2 -2 -2 -2 -0 -0 -1 1 -0 1 -1 -0 -1 1 -3 8 -2 1 1 -1 -1 -1 -1 -1
-2 -3 -5 -1 -4 2 1 -5 -1 -0 -4 6 -0 -3 1 2 -0 2 -2 -2 -2 -4 -2 -1 -0 -1 0 -0 -1 0 -1 -2 0 2 -1 4 0 -2 -1 -1 -0 -1 -1
-0 -1 -4 -5 3 -2 1 -6 8 1 1 6 1 -1 2 1 -1 -2 -2 -0 -1 -2 -2 -2 -1 0 -0 0 1 0 0 2 -1 0 0 -0 -2 1 2 -2 -3 -0 -1
-2 -1 -1 -6 -2 -1 9 -9 -4 1 -1 1 1 3 2 0 1 -0 -2 -1 -2 -1 -2 -1 -1 -1 -1 1 1 2 -0 1 1 -0 1 -1 3 -2 -0 1 0 -1 1
1 -2 -5 -2 1 -3 -9 6 -4 3 -2 1 2 1 2 1 0 1 -1 -0 -3 -3 -1 -1 -0 -3 -1 1 -0 1 0 -0 -1 -0 -1 -1 2 1 -1 0 -1 0 0
1 1 -3 -2 2 1 -7 -1 -0 6 -0 4 -0 2 0 -1 -2 -1 1 0 -1 -1 -0 -1 0 -2 -1 1 0 -1 0 3 -1 -4 -3 2 -1 -0 -0 4 0 -1 -0
4 4 2 0 -1 5 -3 -12 9 -1 2 -3 3 -0 2 -2 -1 0 1 -0 -0 0 -0 -0 0 1 -3 -1 -0 -2 0 1 3 1 1 -4 -2 -2 -1 -0 -1 -3 -2
3 2 -1 2 3 -3 -6 3 6 -1 -0 1 -2 1 6 0 0 -0 -2 0 0 0 -0 -0 -1 1 1 0 -2 -1 -1 -2 -1 6 -5 1 2 -2 -0 -0 -2 -6 -6
-2 -0 2 -1 -4 -6 5 10 -2 5 -1 1 1 1 -2 -2 -2 1 1 -1 1 -0 1 -0 -1 -1 1 -0 -1 0 -0 -2 -2 -0 10 -4 -2 -7 -3 -2 -1 0 -3
0 1 -1 2 -5 -1 -10 20 -3 2 2 2 2 1 0 -1 -2 0 1 -2 -0 1 -0 -1 -1 -1 -2 -2 -0 -1 -2 -2 -5 -2 5 1 3 3 1 1 -4 -1 -3
Height
5853 5853 5854 5855 5855 5856 5857 5859 5859 5860 5861 5862 5862 5861 5861 5860 5861 5860 5860 5861 5861 5861 5861 5861 5862 5862 5862 5862 5862 5862 5862 5862 5862 5862 5862 5862 5862 5861 5861 5861 5862 5862 5862
5849 5849 5851 5852 5853 5853 5854 5855 5856 5857 5858 5858 5859 5860 5859 5859 5858 5859 5859 5859 5859 5859 5859 5859 5859 5859 5860 5860 5860 5860 5860 5859 5859 5859 5859 5859 5859 5859 5858 5858 5858 5858 5858
5846 5847 5848 5850 5851 5851 5851 5852 5853 5854 5855 5856 5856 5856 5857 5857 5856 5856 5856 5856 5857 5857 5857 5857 5857 5857 5857 5858 5857 5858 5857 5857 5857 5857 5856 5856 5856 5856 5856 5855 5855 5855 5854
5843 5844 5846 5847 5848 5848 5849 5850 5850 5851 5852 5853 5854 5853 5853 5853 5854 5853 5854 5854 5854 5855 5855 5855 5854 5854 5855 5855 5855 5854 5854 5854 5854 5854 5854 5854 5853 5853 5852 5852 5851 5851 5851
5840 5841 5842 5843 5845 5846 5846 5847 5847 5848 5849 5849 5850 5850 5850 5850 5850 5851 5851 5851 5850 5851 5851 5851 5851 5851 5852 5852 5852 5852 5852 5851 5851 5851 5850 5850 5849 5849 5848 5847 5847 5847 5847
5837 5838 5838 5839 5841 5842 5843 5844 5844 5844 5845 5845 5846 5846 5847 5846 5846 5847 5847 5847 5848 5848 5848 5847 5848 5849 5849 5849 5849 5849 5849 5849 5848 5847 5847 5847 5845 5846 5845 5844 5843 5842 5842
5833 5834 5835 5835 5836 5837 5838 5840 5840 5840 5841 5841 5841 5841 5842 5842 5842 5843 5843 5843 5844 5844 5844 5845 5845 5846 5846 5845 5845 5845 5845 5845 5845 5844 5843 5843 5841 5842 5841 5840 5839 5838 5838
5829 5830 5830 5831 5833 5833 5833 5834 5835 5836 5836 5836 5837 5837 5837 5838 5839 5839 5840 5840 5840 5841 5842 5842 5843 5842 5842 5842 5843 5843 5842 5841 5841 5839 5840 5838 5837 5837 5837 5836 5834 5834 5833
5824 5827 5826 5828 5829 5830 5830 5831 5832 5832 5833 5833 5833 5834 5835 5835 5835 5836 5836 5837 5837 5838 5839 5839 5839 5840 5840 5840 5840 5839 5838 5837 5835 5834 5834 5832 5832 5832 5833 5830 5829 5829 5828
5820 5823 5825 5825 5826 5827 5828 5828 5829 5829 5830 5830 5831 5830 5831 5831 5832 5832 5833 5833 5834 5834 5835 5836 5836 5836 5837 5836 5836 5836 5834 5832 5830 5829 5826 5827 5826 5827 5827 5825 5825 5825 5822
5816 5817 5821 5821 5822 5823 5824 5824 5825 5826 5826 5827 5827 5828 5828 5828 5828 5828 5829 5829 5830 5831 5831 5832 5832 5832 5832 5832 5832 5831 5830 5828 5826 5826 5822 5821 5821 5822 5820 5819 5820 5819 5817
5811 5811 5813 5817 5817 5818 5819 5820 5821 5821 5822 5823 5823 5824 5825 5825 5824 5824 5824 5825 5825 5826 5827 5827 5827 5827 5827 5827 5827 5826 5825 5824 5823 5823 5819 5818 5819 5818 5815 5816 5814 5813 5812
5803 5805 5807 5808 5812 5812 5814 5815 5816 5817 5817 5818 5818 5819 5820 5820 5820 5820 5820 5820 5821 5821 5821 5822 5821 5822 5821 5822 5822 5821 5819 5819 5818 5817 5815 5814 5813 5813 5811 5810 5809 5807 5805
5797 5799 5801 5801 5802 5807 5808 5809 5811 5812 5812 5812 5813 5814 5814 5815 5815 5815 5815 5815 5815 5815 5816 5816 5816 5816 5815 5815 5815 5815 5814 5813 5812 5812 5809 5809 5807 5806 5805 5804 5802 5800 5798
5789 5792 5794 5795 5796 5797 5802 5803 5804 5805 5807 5807 5808 5808 5809 5810 5809 5810 5810 5809 5809 5809 5809 5809 5810 5809 5808 5808 5808 5808 5807 5806 5805 5805 5803 5802 5800 5800 5798 5796 5794 5793 5791
5784 5785 5787 5788 5789 5790 5794 5796 5797 5797 5799 5801 5802 5802 5802 5803 5803 5804 5803 5802 5803 5802 5803 5803 5802 5802 5802 5801 5800 5800 5799 5799 5797 5798 5795 5794 5794 5792 5791 5789 5787 5785 5784
5778 5777 5779 5781 5783 5785 5785 5789 5790 5792 5791 5794 5795 5794 5796 5797 5797 5797 5797 5796 5796 5796 5796 5795 5795 5794 5794 5793 5793 5793 5792 5791 5789 5789 5789 5786 5786 5784 5783 5781 5779 5777 5775
5771 5771 5772 5774 5776 5778 5780 5780 5784 5786 5786 5789 5789 5789 5790 5791 5790 5790 5790 5790 5790 5789 5788 5788 5787 5787 5786 5786 5786 5786 5784 5783 5782 5781 5779 5779 5777 5775 5774 5772 5771 5768 5766
5763 5765 5766 5768 5772 5772 5773 5773 5776 5778 5779 5782 5783 5783 5784 5785 5784 5784 5783 5783 5782 5782 5782 5781 5780 5780 5780 5779 5779 5778 5777 5775 5774 5773 5771 5770 5768 5767 5766 5763 5760 5759 5757
5757 5758 5759 5759 5764 5766 5768 5767 5768 5771 5772 5774 5776 5778 5777 5778 5778 5777 5777 5776 5776 5775 5775 5774 5772 5772 5772 5772 5772 5771 5769 5768 5766 5764 5763 5761 5760 5757 5755 5753 5751 5748 5746
5749 5751 5752 5754 5756 5758 5759 5763 5762 5761 5763 5765 5768 5769 5771 5771 5771 5771 5770 5769 5768 5767 5767 5766 5765 5764 5763 5763 5763 5762 5761 5759 5757 5755 5753 5751 5749 5747 5743 5741 5738 5736 5733
5740 5742 5742 5744 5748 5751 5750 5752 5755 5757 5757 5759 5760 5761 5763 5763 5763 5763 5763 5762 5761 5760 5759 5758 5757 5756 5755 5754 5753 5752 5752 5752 5747 5745 5743 5740 5737 5734 5732 5729 5726 5722 5720
5731 5732 5733 5734 5737 5740 5744 5741 5748 5749 5750 5751 5752 5752 5752 5753 5755 5755 5754 5754 5753 5752 5751 5750 5749 5748 5746 5744 5743 5742 5741 5739 5738 5735 5732 5728 5724 5722 5719 5716 5713 5709 5705
5718 5722 5723 5725 5726 5728 5733 5736 5739 5741 5742 5743 5744 5746 5745 5746 5747 5747 5746 5745 5744 5744 5742 5741 5740 5739 5738 5736 5733 5731 5729 5726 5725 5724 5720 5716 5712 5708 5705 5702 5698 5693 5689
5705 5709 5713 5714 5715 5717 5724 5727 5730 5732 5733 5734 5736 5738 5738 5739 5738 5738 5738 5738 5737 5735 5734 5732 5731 5729 5728 5726 5724 5721 5718 5715 5712 5710 5708 5704 5699 5695 5692 5688 5685 5681 5677
5692 5695 5698 5702 5705 5706 5713 5717 5720 5722 5725 5726 5728 5729 5730 5731 5731 5731 5730 5730 5729 5727 5725 5724 5721 5720 5718 5715 5712 5710 5706 5703 5699 5697 5695 5692 5689 5685 5680 5674 5669 5664 5660